Location: Unspecified
(0.0000°N, 0.0000°E)
Time: 15:56:30
(UTC+00:00)

IRIDIUM 114 - Pass Details

Date: 18 November 2025
Orbit: 776 x 779 km, 86.4° (Epoch: 12 December)

Event Time Altitude Azimuth Distance (km) Brightness Sun altitude
Exits shadow 19:55:51 35° 182° (S) 1,229 5.4 -30.6°
Drops below altitude 10° 19:58:49 10° 181° (S) 2,325 7.0 -31.3°
Sets 20:01:10 0° 180° (S) 3,255 7.8 -31.8°
